User: anonymous   Login
Location: Kielce
(50.8833°N, 20.6167°E)
Time: 21:43:32
(UTC+02:00)
Language:

Transit 2A - Orbit

View from above orbital plane
View from above orbital plane
View from above satellite
View from above satellite

Ground track
Ground track

The orbit data is extracted from the following two-line orbital elements,

1 00045U 60007A   21108.92424886 -.00000003  00000-0  26218-4 0  9994
2 00045  66.6937 295.8844 0247879  93.3348 269.6139 14.33715821109624
Epoch (UTC): 18 April 2021 22:10:55
Eccentricity: 0.0247879
inclination: 66.6937°
perigee height: 602 km
apogee height: 957 km
right ascension of ascending node: 295.8844°
argument of perigee: 93.3348°
revolutions per day: 14.33715821
mean anomaly at epoch: 269.6139°
orbit number at epoch: 10962

The dashed part of the orbit path shows where the satellite is in the earth's shadow,  

DLR